Location: De Greiden
(52.9496°N, 5.9137°E)
Time: 02:03:06
(UTC+00:00)

SAR-Lupe-1 - Pass Details

Date: 24 January 2021
Orbit: 481 x 485 km, 98.2° (Epoch: 22 February)

Event Time Altitude Azimuth Distance (km) Brightness Sun altitude
Exits shadow 18:36:58 77° 235° (SW) 502 4.1 -22.3°
Drops below altitude 10° 18:40:21 10° 200° (SSW) 1,661 7.0 -22.8°
Sets 18:42:24 0° 199° (SSW) 2,536 8.0 -23.1°
